sat.trackr.live / text

‹ back to catalog

HAWK-7B

NORAD 56193 · 2023-054R

PAYLOAD ACTIVE UNKNOWN

§ Identity

Operator
Country
US
Launch date
2023-04-15
Launch site
AFWTR
Launch vehicle
Mass (kg)
RCS (m²)

Purposes: tech_demo

External: N2YO · Heavens-Above · Gunter

§ Orbital elements

Epoch: 2026-05-25T02:42:14.794272Z

Period
94.30 min
Inclination
97.2760°
Eccentricity
0.0003816
Mean motion
15.27077782 rev/d
Perigee alt
481.9 km
Apogee alt
487.2 km
Semi-major
6,862.7 km
B*
1.9341e-4
RAAN
31.2927°
Arg perigee
111.1162°
Mean anomaly
249.0486°
Rev number
17,350

§ Raw data

HAWK-7B1 56193U 23054R   26145.11267123  .00005066  00000+0  19341-3 0  99962 56193  97.2760  31.2927 0003816 111.1162 249.0486 15.27077782173507

JSON: /api/v1/satellites/56193 · /tle

For live sub-satellite position, see the globe view (requires WebGL).

§ Visibility from observer

Set your observer location to see the next 7 days of passes ≥ 10°. The values pass through the URL so the page stays shareable.

No JS? Fill the form by hand. The geolocation button needs JavaScript.